Weather History for Danbury, CT

Change the Weather History Date:

Friday, December 1, 2000

  Actual Average Record
Temperature  
Mean Temperature 32 °F -  
Max Temperature 37 °F 43 °F 66 °F (1991)
Min Temperature 27 °F 26 °F 8 °F (1976)
Degree Days  
Heating Degree Days 32    
Moisture  
Dew Point 21 °F    
Average Humidity 64    
Maximum Humidity 73    
Minimum Humidity 52    
Precipitation  
Precipitation 0.00 in - - ()
Sea Level Pressure  
Sea Level Pressure 30.20 in    
Wind  
Wind Speed 6 mph (NW)    
Max Wind Speed 10 mph    
Max Gust Speed -    
Visibility 10 miles    
Events      
Averages and records for this station are not official NWS values.
T = Trace of Precipitation, MM = Missing Value Source: NWS Daily Summary

Daily Weather History Graph

Daily Weather History Graph

Search for Another Location

Airport:

Trip Planner

Search our weather history database for the weather conditions in past years. The results will help you decide how hot, cold, wet, or windy it might be!

Date:

Astronomy

Dec. 01, 2000 Rise Set
Actual Time 7:00 AM EST 4:25 PM EST
Civil Twilight 6:30 AM EST 4:56 PM EST
Nautical Twilight 5:55 AM EST 5:30 PM EST
Astronomical Twilight 5:22 AM EST 6:03 PM EST
Moon 11:26 AM EST (12/1) 9:25 PM EST (12/1)
Length of Visible Light 10h 25m
Length of Day
9h 24m
Waxing Crescent, 28% of the Moon is Illuminated
Dec 1
Waxing Crescent
Dec 3
First Quarter
Dec 11
Full
Dec 17
Last Quarter
Dec 25
New

Hourly Weather History & Observations

Time (EST) Temp. Windchill Dew Point Humidity Pressure Visibility Wind Dir Wind Speed Gust Speed Precip Events Conditions
12:53 AM 33.1 °F 28.7 °F 25.0 °F 72% 30.10 in 10.0 mi West 4.6 mph - N/A   Overcast
1:53 AM 33.1 °F 27.7 °F 24.1 °F 70% 30.12 in 10.0 mi West 5.8 mph - N/A   Mostly Cloudy
2:53 AM 32.0 °F 25.6 °F 23.0 °F 69% 30.13 in 10.0 mi West 6.9 mph - N/A   Partly Cloudy
3:53 AM 30.9 °F 25.2 °F 21.9 °F 69% 30.14 in 10.0 mi West 5.8 mph - N/A   Clear
4:53 AM 32.0 °F 28.7 °F 23.0 °F 69% 30.15 in 10.0 mi West 3.5 mph - N/A   Overcast
5:53 AM 32.0 °F 26.4 °F 24.1 °F 73% 30.17 in 10.0 mi WSW 5.8 mph - N/A   Overcast
6:53 AM 32.0 °F 26.4 °F 23.0 °F 69% 30.18 in 10.0 mi West 5.8 mph - N/A   Overcast
7:53 AM 32.0 °F 25.6 °F 24.1 °F 73% 30.19 in 10.0 mi WSW 6.9 mph - N/A   Overcast
8:53 AM 33.1 °F 27.7 °F 23.0 °F 66% 30.19 in 10.0 mi West 5.8 mph - N/A   Overcast
9:53 AM 35.1 °F 30.1 °F 23.0 °F 61% 30.20 in 10.0 mi NNW 5.8 mph - N/A   Mostly Cloudy
11:53 AM 36.0 °F 29.6 °F 21.9 °F 57% 30.18 in 10.0 mi NNW 8.1 mph - N/A   Overcast
12:53 PM 36.0 °F 29.6 °F 21.9 °F 57% 30.17 in 10.0 mi West 8.1 mph - N/A   Overcast
1:53 PM 37.0 °F 31.6 °F 21.9 °F 54% 30.17 in 10.0 mi NNW 6.9 mph - N/A   Overcast
2:53 PM 37.0 °F 30.4 °F 21.0 °F 52% 30.18 in 10.0 mi NNW 9.2 mph - N/A   Overcast
3:53 PM 35.1 °F 27.4 °F 23.0 °F 61% 30.21 in 10.0 mi North 10.4 mph - N/A   Overcast
4:53 PM 34.0 °F 29.8 °F 23.0 °F 64% 30.23 in 10.0 mi NNW 4.6 mph - N/A   Mostly Cloudy
5:53 PM 32.0 °F 28.7 °F 23.0 °F 69% 30.24 in 10.0 mi NNW 3.5 mph - N/A   Scattered Clouds
6:53 PM 30.9 °F 24.3 °F 19.0 °F 61% 30.25 in 10.0 mi NNW 6.9 mph - N/A   Clear
7:53 PM 30.0 °F 23.2 °F 18.0 °F 61% 30.27 in 10.0 mi NNW 6.9 mph - N/A   Clear
8:53 PM 28.0 °F 19.3 °F 16.0 °F 61% 30.29 in 10.0 mi North 9.2 mph - N/A   Clear
9:53 PM 28.0 °F 18.6 °F 17.1 °F 63% 30.30 in 10.0 mi North 10.4 mph - N/A   Clear
10:53 PM 28.0 °F 20.0 °F 17.1 °F 63% 30.31 in 10.0 mi North 8.1 mph - N/A   Mostly Cloudy
11:53 PM 27.0 °F 19.5 °F 16.0 °F 63% 30.31 in 10.0 mi NNW 6.9 mph - N/A   Mostly Cloudy